Weather History for Aswan, Egypt

Change the Weather History Date:

Tuesday, January 7, 2014

  Actual Average Record
Temperature  
Mean Temperature 63 °F -  
Max Temperature 75 °F 71 °F 84 °F (2003)
Min Temperature 51 °F 50 °F 41 °F (2002)
Degree Days  
Heating Degree Days 2    
Growing Degree Days 13 (Base 50)    
Moisture  
Dew Point 43 °F    
Average Humidity 50    
Maximum Humidity 77    
Minimum Humidity 25    
Precipitation  
Precipitation 0.00 in 0.00 in - ()
Sea Level Pressure  
Sea Level Pressure 30.00 in    
Wind  
Wind Speed 4 mph ()    
Max Wind Speed 8 mph    
Max Gust Speed -    
Visibility 6.0 miles    
Events      
Averages and records for this station are not official NWS values.
T = Trace of Precipitation, MM = Missing Value Source: Averaged Metar Reports

Daily Weather History Graph

Daily Weather History Graph

Search for Another Location

Airport:

Trip Planner

Search our weather history database for the weather conditions in past years. The results will help you decide how hot, cold, wet, or windy it might be!

Date:

Astronomy

Jan. 07, 2014 Rise Set
Actual Time 6:33 AM EET 5:16 PM EET
Civil Twilight 6:08 AM EET 5:41 PM EET
Nautical Twilight 5:40 AM EET 6:09 PM EET
Astronomical Twilight 5:12 AM EET 6:37 PM EET
Moon 10:56 AM EET (1/7) 11:42 PM EET (1/7)
Length of Visible Light 11h 33m
Length of Day
10h 43m
Waxing Crescent, 42% of the Moon is Illuminated
Jan 7
Waxing Crescent
Jan 8
First Quarter
Jan 16
Full
Jan 24
Last Quarter
Jan 30
New

Hourly Weather History & Observations

Time (EET) Temp. Dew Point Humidity Pressure Visibility Wind Dir Wind Speed Gust Speed Precip Events Conditions
12:00 AM 57.2 °F 39.2 °F 51% 30.01 in - North 5.8 mph - N/A   Clear
1:00 AM 57.2 °F 41.0 °F 55% 30.01 in - North 4.6 mph - N/A   Clear
2:00 AM 56 °F 40 °F 44% 30.03 in 6 mi North 3.5 mph - -  
2:00 AM 55.4 °F 41.0 °F 58% 30.01 in - North 3.5 mph - N/A   Clear
3:00 AM 53.6 °F 41.0 °F 62% 30.01 in - North 5.8 mph - N/A   Clear
4:00 AM 53.6 °F 41.0 °F 62% 30.01 in - North 5.8 mph - N/A   Clear
5:00 AM 53.6 °F 42.8 °F 67% 30.01 in - North 5.8 mph - N/A   Clear
6:00 AM 53.6 °F 42.8 °F 67% 30.01 in - North 4.6 mph - N/A   Clear
7:00 AM 51.8 °F 44.6 °F 76% 30.04 in - NW 5.8 mph - N/A   Clear
8:00 AM 53 °F 42 °F 56% 30.07 in 6 mi North 5.8 mph - -  
8:00 AM 53.6 °F 42.8 °F 67% 30.06 in - North 5.8 mph - N/A   Clear
9:00 AM 57.2 °F 44.6 °F 63% 30.06 in - North 8.1 mph - N/A   Clear
10:00 AM 57.2 °F 50.0 °F 77% 30.06 in - North 8.1 mph - N/A   Clear
11:00 AM 62.6 °F 46.4 °F 55% 30.04 in - North 6.9 mph - N/A   Clear
12:00 PM 64.4 °F 46.4 °F 52% 30.01 in - ENE 5.8 mph - N/A   Clear
1:00 PM 69.8 °F 46.4 °F 43% 29.98 in - East 4.6 mph - N/A   Clear
2:00 PM 71 °F 43 °F 25% 29.95 in 6 mi East 4.6 mph - -   Partly Cloudy
2:00 PM 71.6 °F 42.8 °F 35% 29.95 in - East 4.6 mph - N/A   Clear
3:00 PM 73.4 °F 42.8 °F 33% 29.95 in - WNW 2.3 mph - N/A   Clear
4:00 PM 73.4 °F 41.0 °F 31% 29.95 in - East 2.3 mph - N/A   Clear
5:00 PM 71.6 °F 41.0 °F 33% 29.95 in - ENE 1.2 mph - N/A   Clear
6:00 PM 68.0 °F 41.0 °F 37% 29.95 in - Calm Calm - N/A   Clear
7:00 PM 68.0 °F 41.0 °F 37% 29.98 in - WNW 3.5 mph - N/A   Clear
8:00 PM 65 °F 42 °F 31% 29.98 in 6 mi NNW 4.6 mph - -  
8:00 PM 66.2 °F 41.0 °F 40% 29.98 in - NNW 4.6 mph - N/A   Clear
9:00 PM 62.6 °F 42.8 °F 48% 29.98 in - NW 4.6 mph - N/A   Clear
10:00 PM 60.8 °F 41.0 °F 48% 29.98 in - NW 3.5 mph - N/A   Clear
11:00 PM 60.8 °F 41.0 °F 48% 29.98 in - NW 3.5 mph - N/A   Clear